#timestamp,LO_Frequency,Hit 
1498410015.3,286046955.1,N
1498410035.2,286046954.5,N
1498410055.9,286046957.3,N
1498410075.7,286046956.9,N
1498410095.6,286046959.3,N
1498410115.4,286046958.6,N
1498410135.2,286046960.0,N
1498410155.0,286046960.3,N
1498410155.9,286046960.3,N
1498410175.8,286046961.6,N
1498410195.6,286046962.1,N
1498410215.4,286046961.9,N
1498410235.3,286046958.3,N
1498410255.1,286046961.0,N
1498410275.8,286046959.0,N
1498410295.7,286046959.8,N
1498410315.5,286046960.4,N
1498410335.3,286046960.0,N
1498410355.2,286046961.9,N
1498410375.9,286046962.0,N
1498410395.7,286046958.1,N
1498410415.6,286046961.0,N
1498410435.4,286046960.0,N
1498410455.2,286046958.7,N
1498410475.0,286046958.2,N
1498410476.0,286046958.2,N
1498410495.8,286046960.5,N
1498410515.6,286046960.2,N
1498410535.4,286046959.9,N
1498410555.3,286046960.3,N
1498410575.1,286046960.7,N
1498410595.8,286046960.5,N
1498410615.7,286046960.4,N
1498410635.5,286046958.5,N
1498410655.3,286046959.5,N
1498410675.2,286046956.1,N
1498410695.9,286046955.9,N
1498410715.7,286046955.2,N
1498410735.6,286046956.4,N
1498410755.4,286046951.9,N
1498410775.2,286046954.6,N
1498410795.0,286046953.9,N
1498410795.9,286046953.9,N
1498410815.8,286046955.8,N
1498410835.6,286046952.3,N
1498410855.4,286046952.4,N
1498410875.3,286046950.7,N
1498410895.1,286046948.9,N
1498410915.8,286046947.4,N
1498410935.7,286046947.1,N
1498410955.5,286046947.2,N
1498410975.3,286046951.1,N
1498410995.2,286046948.5,N
1498411015.9,286046949.3,N
1498411035.7,286046946.9,N
1498411055.5,286046947.7,N
1498411075.4,286046948.3,N
1498411095.2,286046945.3,N
1498411115.0,286046949.8,N
1498411115.9,286046949.8,N
1498411135.8,286046949.2,N
1498411155.6,286046949.4,N
1498411175.4,286046949.6,N
1498411195.3,286046947.3,N
1498411215.1,286046949.6,N
1498411216.0,286046949.6,N
1498411235.8,286046951.0,N
1498411255.7,286046949.1,N
1498411275.5,286046949.6,N
1498411295.3,286046948.4,N
1498411315.2,286046947.6,N
1498411335.9,286046948.2,N
1498411355.7,286046946.1,N
1498411375.5,286046946.7,N
1498411395.4,286046944.1,N
1498411415.2,286046946.8,N
1498411435.0,286046943.9,N
1498411435.9,286046943.9,N
1498411455.8,286046946.5,N
1498411475.6,286046945.8,N
1498411495.4,286046948.0,N
1498411515.3,286046947.5,N
1498411535.1,286046945.6,N
1498411536.0,286046945.6,N
1498411555.8,286046944.5,N
1498411575.7,286046943.5,N
1498411595.5,286046942.3,N
1498411615.3,286046943.2,N
1498411635.2,286046941.2,N
1498411655.9,286046939.3,Y
1498411675.7,286046969.6,N
1498411695.6,286046971.5,N
1498411715.4,286046969.4,N
1498411735.2,286046971.7,N
1498411755.1,286046973.9,N
1498411756.0,286046973.9,N
1498411775.8,286046971.7,N
1498411795.6,286046973.9,N
1498411815.5,286046973.9,N
1498411835.3,286046971.6,N
1498411855.1,286046972.2,N
1498411875.8,286046969.5,N
1498411895.7,286046970.3,N
1498411915.5,286046968.1,N
1498411935.3,286046968.1,N
1498411955.2,286046969.6,N
1498411975.0,286046968.2,N
1498411975.9,286046968.2,N
1498411995.7,286046968.5,N
1498412015.6,286046968.3,N
1498412035.4,286046968.2,N
1498412055.2,286046968.1,N
1498412075.1,286046972.2,N
1498412076.0,286046972.2,N
1498412095.8,286046969.3,N
1498412115.6,286046971.3,N
1498412135.5,286046969.8,N
1498412155.3,286046971.2,N
1498412175.1,286046972.4,N
1498412195.9,286046968.1,N
1498412215.7,286046970.6,N
1498412235.5,286046969.0,N
1498412255.4,286046969.2,N
1498412275.2,286046968.8,N
1498412295.0,286046966.1,N
1498412295.9,286046966.1,N
1498412315.8,286046968.8,N
1498412335.6,286046968.0,N
1498412355.4,286046968.8,N
1498412375.2,286046969.0,N
1498412395.1,286046966.1,N
1498412396.0,286046966.1,N
1498412415.8,286046968.6,N
1498412435.6,286046969.3,N
1498412455.5,286046972.3,N
1498412475.3,286046972.3,N
1498412495.1,286046969.7,N
1498412515.9,286046968.2,N
1498412535.7,286046968.4,N
1498412555.5,286046968.5,N
1498412575.4,286046968.8,N
1498412595.2,286046968.8,N
1498412615.0,286046970.3,N
1498412615.9,286046970.3,N
1498412635.8,286046969.3,N
1498412655.6,286046967.7,N
1498412675.4,286046969.0,N
1498412695.2,286046968.7,N
1498412715.1,286046968.7,N
1498412716.0,286046968.7,N
1498412735.8,286046968.9,N
1498412755.6,286046968.2,N
1498412775.5,286046970.4,N
1498412795.3,286046970.7,N
1498412815.1,286046970.4,N
1498412835.9,286046966.2,N
1498412855.7,286046968.7,N
1498412875.5,286046966.2,N
1498412895.4,286046970.1,N
1498412915.2,286046967.9,N
1498412935.0,286046969.7,N
1498412935.9,286046969.7,N
1498412955.8,286046970.0,N
1498412975.6,286046967.9,N
1498412995.4,286046968.5,N
1498413015.2,286046966.2,N
1498413035.1,286046967.8,N
1498413036.0,286046967.8,N
1498413055.8,286046966.1,N
1498413075.6,286046966.9,N
1498413095.5,286046967.0,N
1498413115.3,286046966.3,N
1498413135.1,286046968.9,N
1498413155.9,286046969.0,N
1498413175.7,286046968.3,N
1498413195.5,286046970.7,N
1498413215.4,286046968.9,N
1498413235.2,286046968.6,N
1498413255.0,286046968.3,N
1498413255.9,286046968.3,N
1498413275.8,286046967.3,N
1498413295.6,286046965.2,N
1498413315.4,286046965.2,N
1498413335.2,286046965.7,N
1498413355.1,286046965.6,N
1498413356.0,286046965.6,N
1498413375.8,286046965.0,N
1498413395.6,286046965.7,N
1498413415.5,286046963.2,N
1498413435.3,286046962.9,N
1498413455.1,286046963.6,N
1498413475.9,286046961.9,N
1498413495.7,286046961.9,N
1498413515.5,286046963.7,N
1498413535.4,286046965.1,N
1498413555.2,286046965.1,N
1498413575.0,286046967.2,N
1498413575.9,286046967.2,N
1498413595.8,286046963.6,N
